カタログに戻る

THORAD DELTA 1 DEB

運用中LEO
NORAD 42606·DEBRIS·🇺🇸 United States

打ち上げ Nov 15, 1974 から Vandenberg Space Force Base

Loading…

次のパス (今後24時間)

TLE

古いSource: Space-Track

元期: Aug 24, 2026, 14:19 UTC

1 42606U 74089FX  26236.59672109  .00000176  00000-0  10267-2 0  9996
2 42606 102.1338 161.9226 0181413 165.6576  10.4935 12.72536536581151

AllMySatでTHORAD DELTA 1 DEBをリアルタイム追跡

Download on the App Store